sat.trackr.live / text

‹ back to catalog

STARLINK-35223

NORAD 65494 · 2025-198C

PAYLOAD ACTIVE UNKNOWN

§ Identity

Operator
Country
US
Launch date
2025-09-05
Launch site
AFETR
Launch vehicle
Mass (kg)
RCS (m²)

Purposes: comms

External: N2YO · Heavens-Above · Gunter

§ Orbital elements

Epoch: 2026-09-20T22:19:22.437120Z

Period
93.85 min
Inclination
53.1577°
Eccentricity
0.0000685
Mean motion
15.34421074 rev/d
Perigee alt
462.2 km
Apogee alt
463.1 km
Semi-major
6,840.8 km
B*
4.8338e-4
RAAN
79.7724°
Arg perigee
152.2719°
Mean anomaly
207.8320°
Rev number
5,857

§ Raw data

STARLINK-352231 65494U 25198C   26263.93012080  .00016001  00000+0  48338-3 0  99912 65494  53.1577  79.7724 0000685 152.2719 207.8320 15.34421074 58578

JSON: /api/v1/satellites/65494 · /tle

For live sub-satellite position, see the globe view (requires WebGL).

§ Visibility from observer

Set your observer location to see the next 7 days of passes ≥ 10°. The values pass through the URL so the page stays shareable.

No JS? Fill the form by hand. The geolocation button needs JavaScript.